sat.trackr.live / text

‹ back to catalog

STARLINK-34887

NORAD 65103 · 2025-167AB

PAYLOAD ACTIVE UNKNOWN

§ Identity

Operator
Country
US
Launch date
2025-08-04
Launch site
AFETR
Launch vehicle
Mass (kg)
RCS (m²)

Purposes: comms

External: N2YO · Heavens-Above · Gunter

§ Orbital elements

Epoch: 2026-09-20T07:43:12.120384Z

Period
93.85 min
Inclination
53.1574°
Eccentricity
0.0001026
Mean motion
15.34388105 rev/d
Perigee alt
462.0 km
Apogee alt
463.4 km
Semi-major
6,840.9 km
B*
1.4460e-6
RAAN
198.7268°
Arg perigee
82.6844°
Mean anomaly
277.4275°
Rev number
6,333

§ Raw data

STARLINK-348871 65103U 25167AB  26263.32166806 -.00000327  00000+0  14460-5 0  99992 65103  53.1574 198.7268 0001026  82.6844 277.4275 15.34388105 63331

JSON: /api/v1/satellites/65103 · /tle

For live sub-satellite position, see the globe view (requires WebGL).

§ Visibility from observer

Set your observer location to see the next 7 days of passes ≥ 10°. The values pass through the URL so the page stays shareable.

No JS? Fill the form by hand. The geolocation button needs JavaScript.